カタログに戻る

FENGYUN 1C DEB

運用中SSO
NORAD 30895·DEBRIS·🇨🇳 China

打ち上げ May 10, 1999 から Taiyuan Satellite Launch Center

Loading…

次のパス (今後24時間)

TLE

最新Source: Space-Track

元期: Sep 14, 2026, 10:21 UTC

1 30895U 99025AYH 26257.43180762  .00000451  00000-0  14450-3 0  9990
2 30895  98.6901 331.8924 0216191  33.7760  23.5546 14.32080044 17320

AllMySatでFENGYUN 1C DEBをリアルタイム追跡

Download on the App Store